IRIDIUM 153 (43078 NORAD) Tracking and Keplerian Element Data

This shows tracking and keplerian element data for the satellite.

Feedback or suggestion? Click here.




ElementValue
Catalog43078
NameIRIDIUM 153
Epoch Orbit433
Epoch Day21.37320849
Epoch Year2018
RAAN162.5601
Inclination85.5977
Eccentricity0.0015635
Argument of Perigee144.4688
Mean Anonmoly215.7579
Mean Motion14.83725047
Decay Rate2.31E-06
L11 43078U 17083J 18021.37320849 .00000231 00000-0 24436-4 0 9998
L22 43078 85.5977 162.5601 0015635 144.4688 215.7579 14.83725047 4338

Live tracking and technical data element details for IRIDIUM 153 (NORAD 43078). IRIDIUM 153 can be tracked NOW for your location showing map with azimuth and elevation plus other details from your city location.

Track the satellite on the map from your city or location and see movement details for azimuth, elevation, latitude, longitude, range, height, and movement on the map or in text.







IsCatalogInMostPopularTable: catalog: 43078, numindb: 169
Update: records affected: 1



GetName: 43078 IRIDIUM 153

Hit Count: updated at: Wed, 21 Nov 2018 06:00:15 GMT